Weather History for EDTL - November, 2012

Change the Weather History Date:

Friday, November 2, 2012

  Actual Average (LFST) Record (LFST)
Temperature  
Mean Temperature 49 °F -  
Max Temperature 55 °F 53 °F 66 °F (2014)
Min Temperature 43 °F 39 °F 23 °F (1997)
Degree Days  
Heating Degree Days 16    
Moisture  
Dew Point 41 °F    
Average Humidity 67    
Maximum Humidity 83    
Minimum Humidity 43    
Precipitation  
Precipitation 0.04 in - - ()
Sea Level Pressure  
Sea Level Pressure 29.62 in    
Wind  
Wind Speed 10 mph ()    
Max Wind Speed 22 mph    
Max Gust Speed 26 mph    
Visibility 6.7 miles    
Events Rain    
Averages and records for this station are not official NWS values.
T = Trace of Precipitation, MM = Missing Value Source: Averaged Metar Reports

Daily Weather History Graph

Daily Weather History Graph

Search for Another Location

Airport or City:

Trip Planner

Search our weather history database for the weather conditions in past years. The results will help you decide how hot, cold, wet, or windy it might be!

Date:

Astronomy

Nov. 02, 2012 Rise Set
Actual Time 7:16 AM CET 5:07 PM CET
Civil Twilight 6:43 AM CET 5:40 PM CET
Nautical Twilight 6:06 AM CET 6:17 PM CET
Astronomical Twilight 5:30 AM CET 6:53 PM CET
Moon 7:30 PM CET (11/2) 10:34 AM CET (11/2)
Length of Visible Light 10h 56m
Length of Day
9h 50m
Waning Gibbous, 89% of the Moon is Illuminated
Nov 2
Waning Gibbous
Nov 7
Last Quarter
Nov 13
New
Nov 20
First Quarter
Nov 28
Full

Hourly Weather History & Observations

Time (CET) Temp. Windchill Dew Point Humidity Pressure Visibility Wind Dir Wind Speed Gust Speed Precip Events Conditions
12:00 AM 46 °F - 42 °F 83% 29.49 in 44 mi SSW 11.2 mph - -  
1:00 AM 46 °F - 42 °F 79% 29.51 in 44 mi SSW 11.2 mph - -   Clear
2:00 AM 46 °F - 40 °F 74% 29.55 in 44 mi SSW 11.2 mph - -  
3:00 AM 45 °F - 39 °F 74% 29.58 in 44 mi SSW 8.9 mph - -  
4:00 AM 45 °F - 40 °F 75% 29.61 in 44 mi South 6.7 mph - -  
5:00 AM 46 °F - 39 °F 70% 29.62 in 44 mi SSW 6.7 mph - -   Overcast
6:00 AM 46 °F - 40 °F 72% 29.62 in 34 mi South 8.9 mph - - Rain Light Rain
7:00 AM 46 °F - 40 °F 71% 29.65 in 31 mi SSW 6.7 mph - - Rain Light Rain
8:00 AM 46 °F - 39 °F 68% 29.67 in 31 mi SSW 8.9 mph - - Rain Light Rain Showers
8:20 AM 44.6 °F 41.4 °F 39.2 °F 81% 29.65 in 6.2 mi South 5.8 mph - N/A   Scattered Clouds
8:50 AM 46.4 °F 40.4 °F 39.2 °F 76% 29.65 in 6.2 mi South 13.8 mph - N/A   Scattered Clouds
9:00 AM 47 °F - 39 °F 66% 29.68 in 31 mi South 11.2 mph - -   Mostly Cloudy
9:20 AM 46.4 °F 40.1 °F 39.2 °F 76% 29.65 in 6.2 mi South 15.0 mph - N/A   Mostly Cloudy
9:50 AM 48.2 °F - 39.2 °F 71% 29.68 in 6.2 mi South 15.0 mph - N/A   Mostly Cloudy
10:00 AM 48 °F - 39 °F 63% 29.70 in 31 mi South 11.2 mph - -   Mostly Cloudy
10:20 AM 48.2 °F - 39.2 °F 71% 29.68 in 6.2 mi South 13.8 mph - N/A   Mostly Cloudy
10:50 AM 50.0 °F - 41.0 °F 71% 29.68 in 6.2 mi South 12.7 mph - N/A   Scattered Clouds
11:00 AM 51 °F - 40 °F 56% 29.70 in 34 mi South 11.2 mph - -   Partly Cloudy
11:20 AM 50.0 °F - 39.2 °F 66% 29.68 in 6.2 mi South 11.5 mph - N/A   Scattered Clouds
11:50 AM 51.8 °F - 41.0 °F 67% 29.65 in 6.2 mi South 12.7 mph - N/A   Mostly Cloudy
12:00 PM 52 °F - 40 °F 55% 29.68 in 44 mi South 8.9 mph - -   Mostly Cloudy
12:20 PM 51.8 °F - 41.0 °F 67% 29.65 in 6.2 mi South 11.5 mph - N/A   Mostly Cloudy
12:50 PM 53.6 °F - 39.2 °F 58% 29.62 in 6.2 mi SSW 16.1 mph - N/A   Scattered Clouds
1:00 PM 54 °F - 39 °F 46% 29.65 in 44 mi SSW 15.7 mph - -   Partly Cloudy
1:20 PM 53.6 °F - 39.2 °F 58% 29.62 in 6.2 mi SSW 11.5 mph - N/A   Mostly Cloudy
1:50 PM 53.6 °F - 37.4 °F 54% 29.62 in 6.2 mi SSW 15.0 mph 26.5 mph N/A   Mostly Cloudy
2:00 PM 55 °F - 39 °F 43% 29.63 in 44 mi SSW 11.2 mph - -   Mostly Cloudy
2:20 PM 53.6 °F - 39.2 °F 58% 29.59 in 6.2 mi South 9.2 mph - N/A   Mostly Cloudy
2:50 PM 53.6 °F - 39.2 °F 58% 29.59 in 6.2 mi SSE 6.9 mph - N/A   Mostly Cloudy
3:00 PM 54 °F - 39 °F 46% 29.60 in 44 mi South 6.7 mph - - Rain Light Rain
3:20 PM 53.6 °F - 39.2 °F 58% 29.56 in 6.2 mi South 5.8 mph - N/A   Mostly Cloudy
3:50 PM 51.8 °F - 41.0 °F 67% 29.56 in 6.2 mi South 10.4 mph - N/A Rain Light Rain
4:00 PM 53 °F - 41 °F 54% 29.59 in 12 mi South 8.9 mph - - Rain Light Rain
4:20 PM 50.0 °F - 42.8 °F 76% 29.56 in 6.2 mi South 12.7 mph - N/A Rain Light Rain
4:50 PM 50.0 °F - 44.6 °F 82% 29.53 in 6.2 mi South 10.4 mph - N/A Rain Light Rain
5:00 PM 50 °F - 44 °F 73% 29.57 in 7 mi South 8.9 mph - - Rain Light Rain
6:00 PM 50 °F - 45 °F 78% 29.57 in 7 mi South 13.4 mph - - Rain Light Rain
7:00 PM 52 °F - 45 °F 70% 29.59 in 22 mi SSW 20.1 mph - - Rain Light Rain
8:00 PM 53 °F - 46 °F 69% 29.61 in 40 mi SSW 22.4 mph - - Rain Light Rain
9:00 PM 53 °F - 46 °F 71% 29.64 in 40 mi SSW 17.9 mph - - Rain Light Rain
10:00 PM 53 °F - 46 °F 71% 29.65 in 44 mi SSW 17.9 mph - - Rain Rain
11:00 PM 53 °F - 47 °F 73% 29.67 in 9 mi SSW 15.7 mph - - Rain Rain